Location: Newark
(5.8900°S, 42.6378°W)
Time: 20:35:40
(UTC+00:00)

Vanguard 1 Rocket - Visible Passes

Search period start: 23 October 2019 00:00
Search period end: 02 November 2019 00:00
Orbit: 650 x 4226 km, 34.3° (Epoch: 23 October)

Date Brightness Start Highest point End Pass type
(mag) Time Alt. Az. Time Alt. Az. Time Alt. Az.
23 Oct 9.0 06:54:31 10° SSW 06:58:12 24° SE 07:02:41 10° E visible
23 Oct 10.1 21:56:20 10° WNW 22:19:18 65° SW 22:31:39 10° SE visible
24 Oct 10.5 00:38:50 10° WSW 00:47:49 18° SSW 00:50:26 17° SSW visible
24 Oct 10.2 20:39:37 10° NW 21:05:29 90° SW 21:20:32 10° SE visible
24 Oct 10.5 23:18:28 10° W 23:35:01 33° SW 23:43:53 13° SSE visible
25 Oct 8.0 06:57:46 14° SSW 07:01:11 40° SE 07:06:26 10° ENE visible
25 Oct 10.4 21:59:29 10° WNW 22:21:53 53° SW 22:34:25 10° SE visible
26 Oct 10.6 00:44:14 10° WSW 00:51:15 15° SSW 00:54:36 13° S visible
26 Oct 9.4 05:51:06 15° SE 05:51:06 15° SE 05:52:59 10° ESE visible
26 Oct 10.4 20:42:10 10° WNW 21:08:02 76° SW 21:23:26 10° SE visible
26 Oct 10.6 23:22:56 10° W 23:38:02 28° SW 23:47:19 10° SSE visible
27 Oct 7.0 07:01:50 27° SW 07:04:12 72° SE 07:09:43 10° ENE visible
27 Oct 10.7 22:03:03 10° WNW 22:24:35 44° SW 22:37:08 10° SSE visible
28 Oct 10.7 00:49:52 10° SW 00:54:56 13° SSW 00:58:27 11° S visible
28 Oct 9.1 05:55:14 20° ESE 05:55:14 20° ESE 05:57:17 10° E visible
28 Oct 10.7 20:45:01 10° WNW 21:10:33 65° SW 21:26:14 10° SE visible
28 Oct 10.7 23:27:50 10° WSW 23:41:18 23° SSW 23:50:03 10° SSE visible
29 Oct 6.7 07:05:59 42° W 07:07:17 62° NW 07:12:38 10° NE visible
29 Oct 10.8 22:07:04 10° W 22:27:27 37° SW 22:39:51 10° SSE visible
30 Oct 10.8 00:55:17 10° SW 00:58:51 11° SSW 01:01:54 10° S visible
30 Oct 9.0 05:59:24 20° ENE 05:59:24 20° ENE 06:00:57 10° ENE visible
30 Oct 10.9 20:48:15 10° WNW 21:13:08 55° SW 21:28:57 10° SE visible
30 Oct 10.8 23:33:00 10° WSW 23:44:51 20° SSW 23:52:56 10° SSE visible
31 Oct 7.4 07:10:09 33° NW 07:10:26 33° NW 07:15:08 10° NNE visible
31 Oct 10.9 22:11:31 10° W 22:30:34 31° SSW 22:42:37 10° SSE visible
01 Nov 10.8 00:59:45 10° SSW 01:02:57 11° SSW 01:05:11 10° S visible
01 Nov 9.3 06:03:32 14° NE 06:03:32 14° NE 06:04:11 10° NE visible
01 Nov 11.0 20:51:52 10° WNW 21:15:53 46° SW 21:31:40 10° SE visible
